Miami, FL

7:34 AM EST on December 08, 2016 (GMT -0500)
Miami International

Weather History for KMIA - February, 2013

Change the Weather History Date:

Saturday, February 9, 2013

  Actual Average Record
Temperature  
Mean Temperature 72 °F 70 °F  
Max Temperature 81 °F 78 °F 88 °F (1962)
Min Temperature 63 °F 62 °F 37 °F (1899)
Degree Days  
Heating Degree Days 0 1  
Month to date heating degree days 0 9  
Since 1 July heating degree days 20 99  
Cooling Degree Days 7 6  
Month to date cooling degree days 45 48  
Year to date cooling degree days 314 199  
Growing Degree Days 22 (Base 50)    
Moisture  
Dew Point 62 °F    
Average Humidity 77    
Maximum Humidity 100    
Minimum Humidity 54    
Precipitation  
Precipitation 0.00 in 0.08 in 1.33 in (2008)
Month to date precipitation T 0.70  
Year to date precipitation 0.54 2.32  
Snow  
Snow 0.00 in - - ()
Month to date snowfall 0.0  
Since 1 July snowfall 0.0  
Snow Depth 0.00 in    
Sea Level Pressure  
Sea Level Pressure 30.10 in    
Wind  
Wind Speed 9 mph (NE)    
Max Wind Speed 18 mph    
Max Gust Speed 23 mph    
Visibility 8 miles    
Events Fog    
T = Trace of Precipitation, MM = Missing Value Source: NWS Daily Summary

Daily Weather History Graph

Daily Weather History Graph

Search for Another Location

Airport or City:

Trip Planner

Search our weather history database for the weather conditions in past years. The results will help you decide how hot, cold, wet, or windy it might be!

Date:

Astronomy

Feb. 09, 2013 Rise Set
Actual Time 7:00 AM EST 6:10 PM EST
Civil Twilight 6:36 AM EST 6:34 PM EST
Nautical Twilight 6:09 AM EST 7:01 PM EST
Astronomical Twilight 5:42 AM EST 7:28 PM EST
Moon 6:11 AM EST (2/9) 5:48 PM EST (2/9)
Length of Visible Light 11h 57m
Length of Day
11h 10m
Waning Crescent, 0% of the Moon is Illuminated
Feb 9
Waning Crescent
Feb 10
New
Feb 17
First Quarter
Feb 25
Full
Mar 4
Last Quarter

Hourly Weather History & Observations

Time (EST) Temp. Heat Index Dew Point Humidity Pressure Visibility Wind Dir Wind Speed Gust Speed Precip Events Conditions
12:53 AM 68.0 °F - 57.9 °F 70% 30.04 in 10.0 mi NW 5.8 mph - N/A   Clear
1:53 AM 66.9 °F - 57.0 °F 70% 30.04 in 10.0 mi NW 4.6 mph - N/A   Clear
2:53 AM 64.9 °F - 57.9 °F 78% 30.04 in 10.0 mi NW 3.5 mph - N/A   Clear
3:53 AM 64.0 °F - 60.1 °F 87% 30.04 in 10.0 mi NW 4.6 mph - N/A   Partly Cloudy
4:53 AM 64.0 °F - 61.0 °F 90% 30.05 in 8.0 mi NW 3.5 mph - N/A   Partly Cloudy
5:12 AM 62.6 °F - 60.8 °F 94% 30.05 in 4.0 mi NNW 3.5 mph - N/A   Mostly Cloudy
5:25 AM 62.6 °F - 62.6 °F 100% 30.05 in 1.0 mi NNW 4.6 mph - N/A   Overcast
5:36 AM 64.4 °F - 62.6 °F 94% 30.06 in 0.2 mi NNW 4.6 mph - N/A Fog Fog
5:53 AM 64.0 °F - 63.0 °F 96% 30.06 in 0.2 mi Variable 3.5 mph - N/A Fog Fog
6:53 AM 64.9 °F - 64.0 °F 97% 30.09 in 0.5 mi Calm Calm - N/A Fog Fog
7:53 AM 66.0 °F - 64.9 °F 96% 30.10 in 0.5 mi Calm Calm - N/A Fog Fog
8:18 AM 66.2 °F - 66.2 °F 100% 30.11 in 2.0 mi Calm Calm - N/A Fog Fog
8:35 AM 66.2 °F - 66.2 °F 100% 30.11 in 5.0 mi NE 3.5 mph - N/A   Scattered Clouds
8:53 AM 68.0 °F - 66.0 °F 93% 30.12 in 7.0 mi NNE 4.6 mph - N/A   Partly Cloudy
9:53 AM 75.9 °F - 64.9 °F 69% 30.13 in 10.0 mi ENE 9.2 mph - N/A   Partly Cloudy
10:53 AM 78.1 °F - 64.0 °F 62% 30.14 in 10.0 mi East 13.8 mph - N/A   Scattered Clouds
11:53 AM 80.1 °F 81.5 °F 63.0 °F 56% 30.14 in 10.0 mi East 11.5 mph 18.4 mph N/A   Scattered Clouds
12:53 PM 78.1 °F - 62.1 °F 58% 30.12 in 10.0 mi East 11.5 mph 17.3 mph N/A   Mostly Cloudy
1:53 PM 79.0 °F - 63.0 °F 58% 30.11 in 10.0 mi East 11.5 mph 21.9 mph N/A   Mostly Cloudy
2:53 PM 78.1 °F - 63.0 °F 60% 30.11 in 10.0 mi East 13.8 mph - N/A   Scattered Clouds
3:53 PM 75.9 °F - 62.1 °F 62% 30.11 in 10.0 mi ENE 15.0 mph - N/A   Mostly Cloudy
4:53 PM 75.9 °F - 61.0 °F 60% 30.12 in 10.0 mi ENE 12.7 mph - N/A   Scattered Clouds
5:53 PM 73.9 °F - 61.0 °F 64% 30.13 in 10.0 mi ENE 11.5 mph - N/A   Scattered Clouds
6:53 PM 73.0 °F - 62.1 °F 68% 30.14 in 10.0 mi ENE 11.5 mph - N/A   Scattered Clouds
7:53 PM 73.0 °F - 62.1 °F 68% 30.15 in 10.0 mi ENE 10.4 mph - N/A   Partly Cloudy
8:53 PM 73.0 °F - 61.0 °F 66% 30.16 in 10.0 mi East 11.5 mph 19.6 mph N/A   Scattered Clouds
9:53 PM 73.0 °F - 61.0 °F 66% 30.17 in 10.0 mi ENE 10.4 mph 19.6 mph N/A   Partly Cloudy
10:53 PM 73.0 °F - 61.0 °F 66% 30.17 in 10.0 mi ENE 9.2 mph - N/A   Scattered Clouds
11:53 PM 72.0 °F - 61.0 °F 68% 30.17 in 10.0 mi ENE 12.7 mph - N/A   Mostly Cloudy